Погода в Тимошине

Россия / Костромская область     57°50′02″N   44°25′03″E
темп.,
°C
ветер,
м/с
пор.,
м/с
влажн.,
%
обл.,
%
осадки,
мм/ч
давл.,
гПа
погр.,
м
14 мая, пт
пт1400:00+14ююв310960 0.4 1018307
03:00+12ююз229815 0.4 101943
06:00+14з11930 0.0 1019108
09:00+20ссз1161100 0.0 1019656
12:00+23ю1250100 0.0 10191445
15:00+23юз234828 0.1 10181883
18:00+21юз126219 0.1 101759
21:00+15юз11865 0.1 101712
15 мая, сб
сб1500:00+14вюв228598 0.0 101719
03:00+14вюв2795100 0.0 1016141
06:00+16юв3994100 0.8 1016287
09:00+21юв367799 1.3 1014482
12:00+26ююв465265 0.0 10131288
15:00+27ююв48476 0.0 10111985
18:00+24ююз5106232 0.1 10111412
21:00+18ю3139031 1.1 1012452
16 мая, вс
вс1600:00+16ююз31290100 0.0 1012442
03:00+14ю299814 0.0 1012238
06:00+16ююз3109052 0.0 1012369
09:00+21юз585876 0.0 10131181
12:00+23юз5847100 0.0 10131775
15:00+23юз59444 0.0 10122197
18:00+21ююз495583 0.0 10121608
21:00+16юз29792 0.1 1013236
17 мая, пн
пн1700:00+13юз311884 0.0 1014295
03:00+12ююз3109453 0.0 1015212
06:00+15юз38836 0.0 1015275
09:00+20юз46585 0.0 10161080
12:00+23зюз46455 0.0 10161636
15:00+24зюз45425 0.0 10161704
18:00+22з135951 0.0 1016138
21:00+16св11715 0.1 101611
18 мая, вт
вт1800:00+14юв22835 0.2 101627
03:00+13вюв269199 0.4 101698
06:00+16вюв378899 0.0 1015188
09:00+23юв346012 0.0 1015554
12:00+27ююв35395 0.0 10141456
15:00+29ю342781 0.0 10133105
18:00+25юв37535 0.0 1013242
21:00+18ююв36699 0.0 101489